Location: Diebersbach
(48.5163°N, 8.0558°E)
Time: 07:57:22
(UTC+00:00)

Cosmos 2369 Rocket - Visible Passes

Search period start: 28 October 2021 00:00
Search period end: 07 November 2021 00:00
Orbit: 830 x 851 km, 71.0° (Epoch: 27 October)

Date Brightness Start Highest point End Pass type
(mag) Time Alt. Az. Time Alt. Az. Time Alt. Az.
28 Oct 4.4 19:52:17 10° NNW 19:53:34 16° N 19:53:34 16° N visible
29 Oct 4.3 19:36:55 10° NNW 19:38:31 17° N 19:38:31 17° N visible
30 Oct 4.1 19:21:35 10° NNW 19:23:28 19° N 19:23:28 19° N visible
31 Oct 4.0 19:06:13 10° NNW 19:08:27 20° N 19:08:27 20° N visible
31 Oct 5.0 20:49:54 10° NNW 20:50:15 12° NNW 20:50:15 12° NNW visible
01 Nov 3.8 18:50:52 10° NNW 18:53:28 21° NNE 18:53:28 21° NNE visible
01 Nov 4.8 20:34:30 10° NNW 20:35:16 14° NNW 20:35:16 14° NNW visible
02 Nov 3.7 18:35:31 10° N 18:38:31 22° NNE 18:38:31 22° NNE visible
02 Nov 4.6 20:19:07 10° NNW 20:20:19 17° NNW 20:20:19 17° NNW visible
03 Nov 3.6 18:20:10 10° N 18:23:36 23° NNE 18:23:36 23° NNE visible
03 Nov 4.3 20:03:43 10° NNW 20:05:24 20° NNW 20:05:24 20° NNW visible
04 Nov 3.5 18:04:49 10° N 18:08:43 23° NE 18:08:43 23° NE visible
04 Nov 4.0 19:48:20 10° NNW 19:50:31 24° NNW 19:50:31 24° NNW visible
05 Nov 3.4 17:49:29 10° N 17:53:51 23° NE 17:53:53 23° NE visible
05 Nov 3.7 19:32:56 10° NNW 19:35:41 30° NNW 19:35:41 30° NNW visible
06 Nov 3.4 17:34:08 10° N 17:38:26 22° NE 17:39:07 21° NE visible
06 Nov 3.3 19:17:34 10° NNW 19:20:55 38° NNW 19:20:55 38° NNW visible
